| time (UTC) | temp C | wind direction | speed KPH | gust KPH | rain 1hr cm | rain 24hr cm | rain mn cm | humidity % | barometer mb |
| 20260510170628 | 25 | 17 | 9.7 | 17.7 | 0.00 | 0.64 | 0.00 | 83 | 1017.9 |
| 20260510165628 | 26 | 357 | 8.0 | 19.3 | 0.00 | 0.64 | 0.00 | 82 | 1018.2 |
| 20260510164627 | 26 | 8 | 9.7 | 19.3 | 0.00 | 0.64 | 0.00 | 82 | 1018.2 |
| 20260510163626 | 26 | 21 | 12.9 | 24.1 | 0.00 | 0.64 | 0.00 | 85 | 1018.2 |
| 20260510162626 | 29 | 235 | 8.0 | 27.4 | 0.00 | 0.64 | 0.00 | 70 | 1018.2 |
| 20260510161625 | 28 | 219 | 8.0 | 14.5 | 0.00 | 0.64 | 0.00 | 69 | 1018.2 |
| 20260510160625 | 28 | 219 | 6.4 | 14.5 | 0.00 | 0.64 | 0.00 | 72 | 1018.2 |
| 20260510155624 | 28 | 222 | 8.0 | 19.3 | 0.00 | 0.64 | 0.00 | 72 | 1018.2 |
| 20260510154623 | 28 | 206 | 6.4 | 12.9 | 0.00 | 0.64 | 0.00 | 74 | 1018.2 |
| 20260510153622 | 27 | 227 | 11.3 | 17.7 | 0.00 | 0.64 | 0.00 | 76 | 1018.6 |
| 20260510152622 | 27 | 226 | 8.0 | 16.1 | 0.00 | 0.64 | 0.00 | 75 | 1018.2 |
| 20260510151621 | 27 | 220 | 8.0 | 16.1 | 0.00 | 0.64 | 0.00 | 76 | 1018.2 |
| 20260510150620 | 27 | 211 | 8.0 | 16.1 | 0.00 | 0.64 | 0.00 | 77 | 1018.2 |
| 20260510145620 | 27 | 210 | 8.0 | 14.5 | 0.00 | 0.64 | 0.00 | 76 | 1018.2 |
| 20260510144619 | 27 | 220 | 9.7 | 16.1 | 0.00 | 0.64 | 0.00 | 76 | 1018.2 |
| 20260510143618 | 27 | 219 | 6.4 | 16.1 | 0.00 | 0.64 | 0.00 | 77 | 1017.9 |
| 20260510142618 | 26 | 225 | 9.7 | 16.1 | 0.00 | 0.64 | 0.00 | 79 | 1018.2 |
| 20260510141617 | 26 | 221 | 8.0 | 12.9 | 0.00 | 0.64 | 0.00 | 80 | 1017.9 |
| 20260510140617 | 26 | 218 | 8.0 | 16.1 | 0.00 | 0.64 | 0.00 | 81 | 1017.9 |
| 20260510135616 | 26 | 220 | 9.7 | 16.1 | 0.00 | 0.64 | 0.00 | 82 | 1017.9 |
| 20260510134616 | 25 | 209 | 6.4 | 12.9 | 0.00 | 0.64 | 0.00 | 84 | 1017.9 |
| 20260510133615 | 25 | 203 | 6.4 | 12.9 | 0.00 | 0.64 | 0.00 | 87 | 1017.6 |
| 20260510132615 | 25 | 202 | 6.4 | 9.7 | 0.00 | 0.64 | 0.00 | 89 | 1017.6 |
| 20260510131614 | 24 | 213 | 8.0 | 11.3 | 0.00 | 0.64 | 0.00 | 92 | 1017.6 |
| 20260510130614 | 24 | 194 | 4.8 | 9.7 | 0.00 | 0.64 | 0.00 | 93 | 1017.6 |
| 20260510125613 | 24 | 198 | 6.4 | 11.3 | 0.00 | 0.64 | 0.00 | 94 | 1017.2 |
| 20260510124612 | 23 | 201 | 4.8 | 9.7 | 0.00 | 0.64 | 0.00 | 95 | 1017.2 |
| 20260510123611 | 23 | 222 | 4.8 | 9.7 | 0.00 | 0.64 | 0.00 | 96 | 1017.2 |
| 20260510122611 | 23 | 202 | 4.8 | 9.7 | 0.00 | 0.64 | 0.00 | 97 | 1016.9 |
| 20260510121541 | 23 | 219 | 3.2 | 6.4 | 0.00 | 0.64 | 0.00 | 97 | 1016.9 |
| 20260510120541 | 22 | 211 | 4.8 | 8.0 | 0.00 | 0.64 | 0.00 | 98 | 1016.5 |
| 20260510115511 | 22 | 241 | 3.2 | 6.4 | 0.00 | 0.64 | 0.00 | 98 | 1016.5 |
| 20260510114441 | 22 | 226 | 3.2 | 6.4 | 0.00 | 0.64 | 0.00 | 98 | 1016.9 |
| 20260510113441 | 22 | 193 | 3.2 | 6.4 | 0.00 | 0.64 | 0.00 | 98 | 1016.5 |
| 20260510112441 | 22 | 174 | 3.2 | 6.4 | 0.00 | 0.64 | 0.00 | 98 | 1016.2 |
| 20260510111441 | 22 | 181 | 3.2 | 4.8 | 0.00 | 0.64 | 0.00 | 98 | 1016.2 |
| 20260510110411 | 22 | 208 | 1.6 | 6.4 | 0.00 | 0.64 | 0.00 | 98 | 1016.2 |
| 20260510105411 | 22 | 207 | 3.2 | 6.4 | 0.00 | 0.64 | 0.00 | 98 | 1016.2 |
| 20260510104411 | 22 | 185 | 3.2 | 8.0 | 0.00 | 0.64 | 0.00 | 98 | 1015.9 |
| 20260510103411 | 22 | 174 | 3.2 | 6.4 | 0.00 | 0.64 | 0.00 | 98 | 1015.5 |
| 20260510102410 | 22 | 222 | 3.2 | 6.4 | 0.00 | 0.64 | 0.00 | 98 | 1015.5 |
| 20260510101410 | 22 | 209 | 3.2 | 6.4 | 0.00 | 0.64 | 0.00 | 97 | 1015.5 |
| 20260510100339 | 22 | 181 | 3.2 | 6.4 | 0.00 | 0.64 | 0.00 | 97 | 1015.2 |
| 20260510095338 | 22 | 204 | 3.2 | 6.4 | 0.00 | 0.64 | 0.00 | 97 | 1015.2 |
| 20260510094338 | 22 | 186 | 3.2 | 6.4 | 0.00 | 0.64 | 0.00 | 97 | 1015.2 |
| 20260510093337 | 22 | 229 | 1.6 | 6.4 | 0.00 | 0.64 | 0.00 | 97 | 1015.2 |
| 20260510092337 | 22 | 208 | 3.2 | 6.4 | 0.00 | 0.64 | 0.00 | 97 | 1015.2 |
| 20260510091336 | 22 | 165 | 1.6 | 4.8 | 0.00 | 0.64 | 0.00 | 97 | 1015.2 |
| 20260510090335 | 22 | 212 | 3.2 | 6.4 | 0.00 | 0.64 | 0.00 | 97 | 1014.8 |
| 20260510085335 | 22 | 175 | 3.2 | 8.0 | 0.00 | 0.64 | 0.00 | 97 | 1014.8 |
| 20260510084334 | 22 | 188 | 3.2 | 11.3 | 0.00 | 0.64 | 0.00 | 97 | 1014.8 |
| 20260510083333 | 22 | 154 | 3.2 | 8.0 | 0.00 | 0.64 | 0.00 | 97 | 1014.5 |
| 20260510082333 | 22 | 130 | 3.2 | 8.0 | 0.00 | 0.64 | 0.00 | 97 | 1014.5 |
| 20260510081332 | 22 | 132 | 3.2 | 9.7 | 0.00 | 0.64 | 0.00 | 97 | 1014.5 |
| 20260510080332 | 22 | 150 | 3.2 | 8.0 | 0.00 | 0.64 | 0.00 | 97 | 1014.5 |
| 20260510075331 | 22 | 153 | 4.8 | 9.7 | 0.00 | 0.64 | 0.00 | 97 | 1014.2 |
| 20260510074331 | 22 | 166 | 4.8 | 11.3 | 0.00 | 0.64 | 0.00 | 97 | 1014.5 |
| 20260510073330 | 22 | 148 | 4.8 | 11.3 | 0.00 | 0.64 | 0.00 | 96 | 1014.5 |
| 20260510072330 | 22 | 157 | 1.6 | 8.0 | 0.00 | 0.64 | 0.00 | 96 | 1014.5 |
| 20260510071329 | 22 | 146 | 3.2 | 8.0 | 0.00 | 0.64 | 0.00 | 96 | 1014.5 |
| 20260510070329 | 22 | 171 | 3.2 | 9.7 | 0.00 | 0.64 | 0.00 | 96 | 1014.5 |
| 20260510065328 | 22 | 132 | 4.8 | 9.7 | 0.00 | 0.64 | 0.00 | 96 | 1014.8 |
| 20260510064327 | 22 | 164 | 3.2 | 4.8 | 0.00 | 0.64 | 0.00 | 96 | 1015.2 |
| 20260510063326 | 22 | 176 | 3.2 | 6.4 | 0.00 | 0.64 | 0.00 | 96 | 1015.2 |
| 20260510062326 | 22 | 126 | 4.8 | 8.0 | 0.00 | 0.64 | 0.00 | 96 | 1015.5 |
| 20260510061325 | 22 | 167 | 3.2 | 8.0 | 0.00 | 0.64 | 0.00 | 96 | 1015.5 |
| 20260510060324 | 22 | 156 | 3.2 | 9.7 | 0.00 | 0.64 | 0.00 | 96 | 1015.5 |
| 20260510055323 | 22 | 165 | 3.2 | 6.4 | 0.00 | 0.64 | 0.00 | 96 | 1015.9 |
| 20260510054323 | 22 | 173 | 3.2 | 6.4 | 0.00 | 0.64 | 0.00 | 96 | 1015.9 |
| 20260510053322 | 22 | 167 | 1.6 | 6.4 | 0.00 | 0.64 | 0.00 | 97 | 1015.9 |
| 20260510052321 | 22 | 179 | 1.6 | 4.8 | 0.00 | 0.64 | 0.00 | 97 | 1015.9 |
| 20260510051321 | 22 | 152 | 1.6 | 6.4 | 0.00 | 0.64 | 0.00 | 97 | 1016.2 |
| 20260510050320 | 22 | 176 | 3.2 | 6.4 | 0.00 | 0.64 | 0.00 | 97 | 1016.2 |
| 20260510045319 | 22 | 161 | 3.2 | 4.8 | 0.00 | 0.64 | 0.00 | 97 | 1016.2 |
| 20260510044319 | 22 | 175 | 3.2 | 4.8 | 0.00 | 0.64 | 0.00 | 96 | 1016.2 |
| 20260510043318 | 22 | 179 | 3.2 | 4.8 | 0.00 | 0.64 | 0.00 | 96 | 1016.2 |
| 20260510042317 | 22 | 166 | 1.6 | 3.2 | 0.00 | 0.64 | 0.00 | 96 | 1016.2 |
| 20260510041317 | 22 | 182 | 1.6 | 3.2 | 0.00 | 0.64 | 0.00 | 96 | 1016.2 |
| 20260510040316 | 22 | 172 | 1.6 | 3.2 | 0.00 | 0.64 | 0.00 | 95 | 1016.2 |
| 20260510035315 | 22 | 173 | 1.6 | 3.2 | 0.00 | 0.64 | 0.64 | 95 | 1016.5 |
| 20260510034315 | 22 | 183 | 1.6 | 3.2 | 0.00 | 0.64 | 0.64 | 95 | 1016.5 |
| 20260510033314 | 23 | 182 | 1.6 | 4.8 | 0.00 | 0.64 | 0.64 | 95 | 1016.2 |
| 20260510032314 | 23 | 171 | 3.2 | 4.8 | 0.00 | 0.64 | 0.64 | 95 | 1016.2 |
| 20260510031313 | 23 | 186 | 1.6 | 4.8 | 0.00 | 0.64 | 0.64 | 94 | 1016.2 |
| 20260510030312 | 23 | 137 | 1.6 | 3.2 | 0.00 | 0.64 | 0.64 | 94 | 1016.2 |
| 20260510025312 | 23 | 184 | 1.6 | 3.2 | 0.00 | 0.64 | 0.64 | 94 | 1016.2 |
| 20260510024312 | 23 | 152 | 1.6 | 3.2 | 0.00 | 0.64 | 0.64 | 94 | 1016.2 |
| 20260510023312 | 23 | 128 | 1.6 | 3.2 | 0.00 | 0.64 | 0.64 | 94 | 1016.2 |
| 20260510022312 | 23 | 187 | 1.6 | 6.4 | 0.00 | 0.64 | 0.64 | 94 | 1015.9 |
| 20260510021242 | 23 | 122 | 1.6 | 4.8 | 0.00 | 0.64 | 0.64 | 94 | 1015.9 |
| 20260510020242 | 23 | 144 | 1.6 | 3.2 | 0.00 | 0.64 | 0.64 | 94 | 1015.9 |
| 20260510015242 | 23 | 102 | 1.6 | 6.4 | 0.00 | 0.64 | 0.64 | 93 | 1015.9 |
| 20260510014213 | 23 | 116 | 3.2 | 4.8 | 0.00 | 0.64 | 0.64 | 94 | 1015.5 |
| 20260510013212 | 23 | 110 | 3.2 | 6.4 | 0.00 | 0.64 | 0.64 | 93 | 1015.5 |
| 20260510012212 | 23 | 128 | 1.6 | 4.8 | 0.00 | 0.64 | 0.64 | 93 | 1015.5 |
| 20260510011142 | 23 | 89 | 1.6 | 4.8 | 0.00 | 0.64 | 0.64 | 93 | 1015.2 |
| 20260510010142 | 23 | 102 | 1.6 | 4.8 | 0.00 | 0.64 | 0.64 | 93 | 1015.5 |
| 20260510005142 | 23 | 228 | 0.0 | 3.2 | 0.00 | 0.64 | 0.64 | 93 | 1015.2 |
| 20260510004141 | 23 | 319 | 0.0 | 3.2 | 0.00 | 0.64 | 0.64 | 92 | 1015.2 |
| 20260510003140 | 23 | 0 | 0.0 | 3.2 | 0.00 | 0.64 | 0.64 | 92 | 1015.2 |
| 20260510002140 | 23 | 230 | 3.2 | 4.8 | 0.00 | 0.64 | 0.64 | 92 | 1014.8 |
| 20260510001139 | 23 | 342 | 0.0 | 3.2 | 0.00 | 0.64 | 0.64 | 91 | 1014.8 |
| 20260510000139 | 23 | 353 | 1.6 | 3.2 | 0.00 | 0.64 | 0.64 | 90 | 1014.8 |
| 20260509235138 | 23 | 356 | 1.6 | 4.8 | 0.00 | 0.64 | 0.64 | 89 | 1014.5 |
| 20260509234138 | 23 | 347 | 1.6 | 4.8 | 0.00 | 0.64 | 0.64 | 89 | 1014.8 |
| 20260509233137 | 23 | 6 | 1.6 | 4.8 | 0.00 | 0.64 | 0.64 | 88 | 1014.5 |
| 20260509232136 | 23 | 13 | 1.6 | 6.4 | 0.00 | 0.64 | 0.64 | 88 | 1014.5 |
| 20260509231136 | 23 | 357 | 1.6 | 8.0 | 0.00 | 0.64 | 0.64 | 88 | 1014.5 |
| 20260509230135 | 23 | 351 | 3.2 | 8.0 | 0.00 | 0.64 | 0.64 | 88 | 1014.5 |
| 20260509225134 | 23 | 15 | 1.6 | 6.4 | 0.00 | 0.69 | 0.64 | 88 | 1014.2 |
| 20260509224134 | 23 | 12 | 1.6 | 4.8 | 0.00 | 0.84 | 0.64 | 88 | 1014.2 |
| 20260509223133 | 23 | 9 | 3.2 | 8.0 | 0.00 | 1.32 | 0.64 | 88 | 1014.2 |
| 20260509222133 | 23 | 16 | 3.2 | 6.4 | 0.00 | 1.47 | 0.64 | 88 | 1014.5 |
| 20260509221133 | 23 | 14 | 3.2 | 6.4 | 0.00 | 1.55 | 0.64 | 88 | 1014.2 |
| 20260509220132 | 23 | 18 | 3.2 | 6.4 | 0.00 | 1.80 | 0.64 | 89 | 1014.2 |
| 20260509215132 | 23 | 27 | 3.2 | 6.4 | 0.00 | 1.96 | 0.64 | 89 | 1014.5 |
| 20260509214131 | 23 | 306 | 1.6 | 6.4 | 0.00 | 2.21 | 0.64 | 89 | 1014.2 |
| 20260509213131 | 23 | 259 | 1.6 | 6.4 | 0.03 | 2.36 | 0.64 | 88 | 1014.5 |
| 20260509212130 | 23 | 356 | 3.2 | 9.7 | 0.03 | 2.39 | 0.64 | 88 | 1014.2 |
| 20260509211129 | 23 | 342 | 1.6 | 6.4 | 0.05 | 2.41 | 0.64 | 88 | 1014.2 |
| 20260509210129 | 23 | 265 | 1.6 | 9.7 | 0.08 | 2.44 | 0.64 | 89 | 1013.8 |
| 20260509205128 | 24 | 246 | 6.4 | 17.7 | 0.28 | 2.44 | 0.64 | 89 | 1014.2 |
| 20260509204127 | 25 | 264 | 3.2 | 12.9 | 0.48 | 2.44 | 0.64 | 92 | 1014.2 |
| 20260509203127 | 25 | 300 | 1.6 | 6.4 | 0.61 | 2.41 | 0.61 | 93 | 1014.2 |
| 20260509202126 | 25 | 12 | 4.8 | 8.0 | 0.61 | 2.41 | 0.61 | 92 | 1013.8 |
| 20260509201126 | 25 | 36 | 3.2 | 12.9 | 0.58 | 2.39 | 0.58 | 92 | 1013.8 |
| 20260509200125 | 25 | 227 | 6.4 | 12.9 | 0.56 | 2.36 | 0.56 | 92 | 1014.5 |
| 20260509195125 | 25 | 311 | 3.2 | 8.0 | 0.36 | 2.16 | 0.36 | 90 | 1014.2 |
| 20260509194124 | 26 | 11 | 4.8 | 11.3 | 0.15 | 1.96 | 0.15 | 85 | 1014.2 |
| 20260509193123 | 26 | 11 | 4.8 | 9.7 | 0.00 | 1.80 | 0.00 | 80 | 1013.8 |
| 20260509192123 | 27 | 8 | 6.4 | 12.9 | 0.00 | 1.80 | 0.00 | 79 | 1013.5 |
| 20260509191122 | 27 | 17 | 6.4 | 11.3 | 0.00 | 1.80 | 0.00 | 77 | 1013.5 |
| 20260509190121 | 27 | 12 | 6.4 | 9.7 | 0.00 | 1.80 | 0.00 | 74 | 1013.5 |
| 20260509185121 | 28 | 246 | 6.4 | 14.5 | 0.00 | 1.80 | 0.00 | 66 | 1013.5 |
| 20260509184120 | 28 | 245 | 8.0 | 12.9 | 0.00 | 1.80 | 0.00 | 65 | 1013.8 |
| 20260509183119 | 28 | 235 | 8.0 | 17.7 | 0.00 | 1.80 | 0.00 | 66 | 1014.2 |
| 20260509182119 | 28 | 230 | 9.7 | 19.3 | 0.00 | 1.80 | 0.00 | 65 | 1014.2 |
| 20260509181118 | 28 | 229 | 8.0 | 17.7 | 0.00 | 1.80 | 0.00 | 67 | 1014.5 |
| 20260509180118 | 28 | 208 | 6.4 | 16.1 | 0.00 | 1.80 | 0.00 | 66 | 1014.5 |
| 20260509175117 | 28 | 222 | 11.3 | 19.3 | 0.00 | 1.80 | 0.00 | 67 | 1014.5 |
| 20260509174117 | 28 | 221 | 9.7 | 16.1 | 0.00 | 1.80 | 0.00 | 67 | 1014.5 |
| 20260509173116 | 28 | 228 | 11.3 | 16.1 | 0.00 | 1.80 | 0.00 | 67 | 1014.5 |
| 20260509172116 | 28 | 239 | 6.4 | 12.9 | 0.00 | 1.80 | 0.00 | 68 | 1014.5 |